This is the latest recevied weather packets stored in our database for station/object N7WSS. If no packets are shown the sender has not sent any weather packets the latest 10 day(s).
| Time | Temp. | Humidity | Pressure | Rain* | Wind** | Luminosity | Snow |
|---|---|---|---|---|---|---|---|
| 1777863272 | 24.44° C | 22% | 1010 hPa | 0 mm | - | - | - |
| 1777862969 | 24.44° C | 21% | 1010.1 hPa | 0 mm | - | - | - |
| 1777862666 | 24.44° C | 21% | 1009.7 hPa | 0 mm | - | - | - |
| 1777862363 | 24.44° C | 20% | 1009.7 hPa | 0 mm | - | - | - |
| 1777862059 | 25° C | 20% | 1009.3 hPa | 0 mm | - | - | - |
| 1777861755 | 25.56° C | 20% | 1009.4 hPa | 0 mm | - | - | - |
| 1777861452 | 25.56° C | 19% | 1009.3 hPa | 0 mm | - | - | - |
| 1777861148 | 26.11° C | 19% | 1009.2 hPa | 0 mm | - | - | - |
| 1777860846 | 26.11° C | 18% | 1009.2 hPa | 0 mm | - | - | - |
| 1777860543 | 26.11° C | 18% | 1009.1 hPa | 0 mm | - | - | - |
| 1777860239 | 26.67° C | 18% | 1008.9 hPa | 0 mm | - | - | - |
| 1777859935 | 26.67° C | 18% | 1008.8 hPa | 0 mm | - | - | - |
| 1777859631 | 26.67° C | 18% | 1008.8 hPa | 0 mm | - | - | - |
| 1777859328 | 26.67° C | 18% | 1008.8 hPa | 0 mm | - | - | - |
| 1777859024 | 27.22° C | 18% | 1008.7 hPa | 0 mm | - | - | - |
| 1777858722 | 27.22° C | 18% | 1008.4 hPa | 0 mm | - | - | - |
| 1777858419 | 27.78° C | 17% | 1008.7 hPa | 0 mm | - | - | - |
| 1777858116 | 27.78° C | 17% | 1008.5 hPa | 0 mm | - | - | - |
| 1777857814 | 27.78° C | 17% | 1008.3 hPa | 0 mm | - | - | - |
| 1777857511 | 28.33° C | 17% | 1008.7 hPa | 0 mm | - | - | - |
| 1777857207 | 28.33° C | 16% | 1008.5 hPa | 0 mm | - | - | - |
| 1777856903 | 28.89° C | 16% | 1008.7 hPa | 0 mm | - | - | - |
| 1777856599 | 28.89° C | 17% | 1008.7 hPa | 0 mm | - | - | - |
| 1777856295 | 28.89° C | 17% | 1008.7 hPa | 0 mm | - | - | - |
| 1777855993 | 28.33° C | 17% | 1008.8 hPa | 0 mm | - | - | - |
* Rain latest hour (hover to see other rain measurements)
** Current wind speed in m/s (hover to see current wind gust speed)